Time,TemperatureF,DewpointF,PressureIn,WindDirection,WindDirectionDegrees,WindSpeedMPH,WindSpeedGustMPH,Humidity,HourlyPrecipIn,Conditions,Clouds,dailyrainin,SoftwareType,DateUTC
2013-01-01 00:03:00,53.1,52.2,30.00,SW,225,2.2,2.2,97,0.00,,---,0.00,VWS V14.01,2013-01-01 06:03:00,
2013-01-01 00:08:00,53.1,52.5,30.00,SW,225,0.0,0.0,98,0.00,,---,0.00,VWS V14.01,2013-01-01 06:08:00,
2013-01-01 00:10:00,53.1,52.2,30.00,WSW,248,2.7,2.7,97,0.00,,---,0.00,VWS V14.01,2013-01-01 06:10:00,
2013-01-01 00:11:00,53.1,52.2,30.00,SW,225,0.0,2.7,97,0.00,,---,0.00,VWS V14.01,2013-01-01 06:11:00,
2013-01-01 00:12:00,53.1,52.2,30.00,WSW,248,0.0,0.0,97,0.00,,---,0.00,VWS V14.01,2013-01-01 06:12:00,
2013-01-01 00:13:00,53.1,52.2,30.00,SW,225,0.0,0.0,97,0.00,,---,0.00,VWS V14.01,2013-01-01 06:13:00,
2013-01-01 00:14:00,53.1,52.2,30.00,SW,225,0.0,0.0,97,0.00,,---,0.00,VWS V14.01,2013-01-01 06:14:00,
2013-01-01 00:15:00,53.1,52.2,30.00,SW,225,0.0,0.0,97,0.00,,---,0.00,VWS V14.01,2013-01-01 06:15:00,
2013-01-01 00:16:00,53.1,52.2,30.00,SW,225,0.0,0.0,97,0.00,,---,0.00,VWS V14.01,2013-01-01 06:16:00,
2013-01-01 00:17:00,53.1,52.5,30.00,SW,225,0.0,0.0,98,0.00,,---,0.00,VWS V14.01,2013-01-01 06:17:00,
2013-01-01 00:18:00,53.1,52.2,30.00,WSW,248,0.0,0.0,97,0.00,,---,0.00,VWS V14.01,2013-01-01 06:18:00,
2013-01-01 00:19:00,53.1,52.2,30.00,SW,225,0.0,0.0,97,0.00,,---,0.00,VWS V14.01,2013-01-01 06:19:00,
2013-01-01 00:20:00,53.1,52.2,30.00,SW,225,0.0,0.0,97,0.00,,---,0.00,VWS V14.01,2013-01-01 06:20:00,
2013-01-01 00:21:00,53.1,52.2,30.00,SW,225,0.0,0.0,97,0.00,,---,0.00,VWS V14.01,2013-01-01 06:21:00,
2013-01-01 00:22:00,53.1,52.2,30.00,SW,225,0.0,0.0,97,0.00,,---,0.00,VWS V14.01,2013-01-01 06:22:00,
2013-01-01 00:23:00,53.1,52.2,30.00,West,270,0.0,0.0,97,0.00,,---,0.00,VWS V14.01,2013-01-01 06:23:00,
2013-01-01 00:24:00,53.1,52.5,30.00,SW,225,0.0,0.0,98,0.00,,---,0.00,VWS V14.01,2013-01-01 06:24:00,
2013-01-01 00:25:00,53.1,52.5,30.00,SW,225,0.0,0.0,98,0.00,,---,0.00,VWS V14.01,2013-01-01 06:25:00,
2013-01-01 00:26:00,53.1,52.5,30.00,SW,225,0.0,0.0,98,0.00,,---,0.00,VWS V14.01,2013-01-01 06:26:00,
2013-01-01 00:27:00,53.1,52.2,30.00,WSW,248,0.0,0.0,97,0.00,,---,0.00,VWS V14.01,2013-01-01 06:27:00,
2013-01-01 00:28:00,53.1,52.2,30.00,NW,315,0.0,0.0,97,0.00,,---,0.00,VWS V14.01,2013-01-01 06:28:00,
2013-01-01 00:29:00,53.1,52.2,30.00,West,270,1.6,1.6,97,0.00,,---,0.00,VWS V14.01,2013-01-01 06:29:00,
2013-01-01 00:30:00,53.1,52.2,30.00,West,270,0.0,1.6,97,0.00,,---,0.00,VWS V14.01,2013-01-01 06:30:00,
2013-01-01 00:31:00,53.1,52.2,30.00,West,270,0.0,0.0,97,0.00,,---,0.00,VWS V14.01,2013-01-01 06:31:00,
2013-01-01 00:32:00,53.1,52.2,30.00,West,270,0.0,1.6,97,0.00,,---,0.00,VWS V14.01,2013-01-01 06:32:00,
2013-01-01 00:33:00,53.1,52.2,30.00,West,270,0.0,0.0,97,0.00,,---,0.00,VWS V14.01,2013-01-01 06:33:00,
2013-01-01 00:34:00,53.1,52.2,30.00,West,270,0.0,0.0,97,0.00,,---,0.00,VWS V14.01,2013-01-01 06:34:00,
2013-01-01 00:35:00,53.1,52.2,30.00,West,270,1.3,1.3,97,0.00,,---,0.00,VWS V14.01,2013-01-01 06:35:00,
2013-01-01 00:36:00,53.1,52.2,30.00,West,270,1.1,2.5,97,0.00,,---,0.00,VWS V14.01,2013-01-01 06:36:00,
2013-01-01 00:37:00,53.1,52.2,30.00,West,270,0.0,1.6,97,0.00,,---,0.00,VWS V14.01,2013-01-01 06:37:00,
2013-01-01 00:38:00,53.1,52.2,30.00,SW,225,0.0,0.0,97,0.00,,---,0.00,VWS V14.01,2013-01-01 06:38:00,
2013-01-01 00:39:00,53.1,52.2,30.00,West,270,0.0,1.6,97,0.00,,---,0.00,VWS V14.01,2013-01-01 06:39:00,
2013-01-01 00:40:00,53.1,52.2,30.00,West,270,0.0,0.0,97,0.00,,---,0.00,VWS V14.01,2013-01-01 06:40:00,
2013-01-01 00:41:00,53.1,52.2,30.00,NW,315,0.0,0.0,97,0.00,,---,0.00,VWS V14.01,2013-01-01 06:41:00,
2013-01-01 00:42:00,53.1,52.2,30.00,WNW,292,0.0,2.0,97,0.00,,---,0.00,VWS V14.01,2013-01-01 06:42:00,
2013-01-01 00:43:00,53.1,52.5,30.00,SSW,202,0.0,0.0,98,0.00,,---,0.00,VWS V14.01,2013-01-01 06:43:00,
2013-01-01 00:44:00,53.1,52.2,30.00,WSW,248,0.0,0.0,97,0.00,,---,0.00,VWS V14.01,2013-01-01 06:44:00,
2013-01-01 00:45:00,53.1,52.2,30.00,WSW,248,0.0,0.0,97,0.00,,---,0.00,VWS V14.01,2013-01-01 06:45:00,
2013-01-01 00:46:00,53.1,52.2,30.00,WNW,292,0.0,0.9,97,0.00,,---,0.00,VWS V14.01,2013-01-01 06:46:00,
2013-01-01 00:47:00,53.1,52.2,30.00,SW,225,0.0,0.9,97,0.00,,---,0.00,VWS V14.01,2013-01-01 06:47:00,
2013-01-01 00:48:00,53.1,52.5,30.00,SSW,202,0.0,0.0,98,0.00,,---,0.00,VWS V14.01,2013-01-01 06:48:00,
2013-01-01 00:49:00,53.1,52.2,30.00,West,270,0.0,0.0,97,0.00,,---,0.00,VWS V14.01,2013-01-01 06:49:00,
2013-01-01 00:50:00,53.1,52.2,30.00,West,270,0.0,0.0,97,0.00,,---,0.00,VWS V14.01,2013-01-01 06:50:00,
2013-01-01 00:51:00,53.1,52.2,30.00,SW,225,1.3,1.3,97,0.00,,---,0.00,VWS V14.01,2013-01-01 06:51:00,
2013-01-01 00:52:00,53.1,52.5,30.00,SSW,202,0.0,1.3,98,0.00,,---,0.00,VWS V14.01,2013-01-01 06:52:00,
2013-01-01 00:53:00,53.1,52.5,30.00,SSE,158,0.0,0.0,98,0.00,,---,0.00,VWS V14.01,2013-01-01 06:53:00,
2013-01-01 00:54:00,53.1,52.5,30.00,SSW,202,0.0,0.0,98,0.00,,---,0.00,VWS V14.01,2013-01-01 06:54:00,
2013-01-01 00:55:00,53.1,52.5,30.00,SSW,202,0.0,0.0,98,0.00,,---,0.00,VWS V14.01,2013-01-01 06:55:00,
2013-01-01 00:56:00,53.1,52.5,30.00,SSW,202,0.0,0.0,98,0.00,,---,0.00,VWS V14.01,2013-01-01 06:56:00,
2013-01-01 00:57:00,53.1,52.5,30.00,SSW,202,0.0,1.6,98,0.00,,---,0.00,VWS V14.01,2013-01-01 06:57:00,
2013-01-01 00:58:00,53.1,52.2,30.00,WSW,248,1.1,1.6,97,0.00,,---,0.00,VWS V14.01,2013-01-01 06:58:00,
2013-01-01 00:59:00,53.1,52.5,30.00,SSW,202,0.0,0.0,98,0.00,,---,0.00,VWS V14.01,2013-01-01 06:59:00,
2013-01-01 01:00:00,53.1,52.5,30.00,SSW,202,0.9,1.1,98,0.00,,---,0.00,VWS V14.01,2013-01-01 07:00:00,
2013-01-01 01:01:00,53.1,52.5,30.00,SSW,202,1.1,1.6,98,0.00,,---,0.00,VWS V14.01,2013-01-01 07:01:00,
2013-01-01 01:02:00,53.1,52.5,30.00,SSE,158,0.0,1.1,98,0.00,,---,0.00,VWS V14.01,2013-01-01 07:02:00,
2013-01-01 01:03:00,53.1,52.5,30.00,SW,225,0.0,2.7,98,0.00,,---,0.00,VWS V14.01,2013-01-01 07:03:00,
2013-01-01 01:04:00,53.1,52.5,30.00,SW,225,0.9,0.9,98,0.00,,---,0.00,VWS V14.01,2013-01-01 07:04:00,
2013-01-01 01:05:00,53.1,52.5,30.00,WNW,292,0.0,2.2,98,0.00,,---,0.00,VWS V14.01,2013-01-01 07:05:00,
2013-01-01 01:06:00,53.1,52.5,30.00,West,270,1.1,1.6,98,0.00,,---,0.00,VWS V14.01,2013-01-01 07:06:00,
2013-01-01 01:07:00,53.1,52.2,30.00,West,270,1.6,1.6,97,0.00,,---,0.00,VWS V14.01,2013-01-01 07:07:00,
2013-01-01 01:08:00,53.1,52.5,30.00,NNW,338,0.0,0.0,98,0.00,,---,0.00,VWS V14.01,2013-01-01 07:08:00,
2013-01-01 01:09:00,53.1,52.2,30.00,WSW,248,2.0,2.2,97,0.00,,---,0.00,VWS V14.01,2013-01-01 07:09:00,
2013-01-01 01:10:00,53.1,52.2,30.00,SSW,202,3.1,3.1,97,0.00,,---,0.00,VWS V14.01,2013-01-01 07:10:00,
2013-01-01 01:11:00,53.1,52.5,30.00,SSW,202,1.1,3.1,98,0.00,,---,0.00,VWS V14.01,2013-01-01 07:11:00,
2013-01-01 01:12:00,53.1,52.5,30.00,SW,225,2.7,3.6,98,0.00,,---,0.00,VWS V14.01,2013-01-01 07:12:00,
2013-01-01 01:13:00,53.1,52.5,30.00,West,270,0.0,0.0,98,0.00,,---,0.00,VWS V14.01,2013-01-01 07:13:00,
2013-01-01 01:14:00,53.1,52.5,30.00,WSW,248,0.0,0.0,98,0.00,,---,0.00,VWS V14.01,2013-01-01 07:14:00,
2013-01-01 01:15:00,53.1,52.5,30.00,NNW,338,2.0,2.0,98,0.00,,---,0.00,VWS V14.01,2013-01-01 07:15:00,
2013-01-01 01:16:00,53.1,52.5,30.00,North,0,2.0,2.7,98,0.00,,---,0.00,VWS V14.01,2013-01-01 07:16:00,
2013-01-01 01:17:00,53.1,52.5,30.00,North,0,0.0,2.0,98,0.00,,---,0.00,VWS V14.01,2013-01-01 07:17:00,
2013-01-01 01:18:00,53.1,52.5,30.00,SSW,202,0.0,0.0,98,0.00,,---,0.00,VWS V14.01,2013-01-01 07:18:00,
2013-01-01 01:19:00,53.1,52.5,30.00,WNW,292,0.9,1.1,98,0.00,,---,0.00,VWS V14.01,2013-01-01 07:19:00,
2013-01-01 01:20:00,53.1,52.5,30.00,NW,315,2.0,2.2,98,0.00,,---,0.00,VWS V14.01,2013-01-01 07:20:00,
2013-01-01 01:21:00,53.1,52.5,30.00,West,270,1.1,2.0,98,0.00,,---,0.00,VWS V14.01,2013-01-01 07:21:00,
2013-01-01 01:22:00,53.1,52.5,30.00,West,270,0.0,1.1,98,0.00,,---,0.00,VWS V14.01,2013-01-01 07:22:00,
2013-01-01 01:23:00,53.1,52.5,30.00,SSW,202,0.9,1.3,98,0.00,,---,0.00,VWS V14.01,2013-01-01 07:23:00,
2013-01-01 01:24:00,53.1,52.5,30.00,West,270,0.0,0.0,98,0.00,,---,0.00,VWS V14.01,2013-01-01 07:24:00,
2013-01-01 01:25:00,53.1,52.5,30.00,SSW,202,0.0,0.9,98,0.00,,---,0.00,VWS V14.01,2013-01-01 07:25:00,
2013-01-01 01:26:00,53.1,52.5,30.00,SSW,202,0.9,1.3,98,0.00,,---,0.00,VWS V14.01,2013-01-01 07:26:00,
2013-01-01 01:27:00,53.1,52.5,30.00,SSW,202,0.0,1.1,98,0.00,,---,0.00,VWS V14.01,2013-01-01 07:27:00,
2013-01-01 01:28:00,53.1,52.5,30.00,SE,135,0.0,0.0,98,0.00,,---,0.00,VWS V14.01,2013-01-01 07:28:00,
2013-01-01 01:29:00,53.1,52.5,30.00,SSW,202,0.0,0.0,98,0.00,,---,0.00,VWS V14.01,2013-01-01 07:29:00,
2013-01-01 01:30:00,53.1,52.5,30.00,SSW,202,0.0,0.0,98,0.00,,---,0.00,VWS V14.01,2013-01-01 07:30:00,
2013-01-01 01:31:00,53.1,52.5,30.00,SSW,202,0.0,0.0,98,0.00,,---,0.00,VWS V14.01,2013-01-01 07:31:00,
2013-01-01 01:32:00,53.1,52.5,30.00,SSW,202,0.0,0.0,98,0.00,,---,0.00,VWS V14.01,2013-01-01 07:32:00,
2013-01-01 01:33:00,53.1,52.5,30.00,East,90,2.7,2.7,98,0.00,,---,0.00,VWS V14.01,2013-01-01 07:33:00,
2013-01-01 01:34:00,53.1,52.5,30.00,SSW,202,1.1,1.3,98,0.00,,---,0.00,VWS V14.01,2013-01-01 07:34:00,
2013-01-01 01:35:00,53.1,52.5,30.00,SSW,202,0.0,1.3,98,0.00,,---,0.00,VWS V14.01,2013-01-01 07:35:00,
2013-01-01 01:36:00,53.1,52.5,30.00,SSW,202,1.3,1.3,98,0.00,,---,0.00,VWS V14.01,2013-01-01 07:36:00,
2013-01-01 01:37:00,53.1,52.5,30.00,SSW,202,0.0,1.3,98,0.00,,---,0.00,VWS V14.01,2013-01-01 07:37:00,
2013-01-01 01:38:00,53.1,52.5,30.00,WNW,292,2.5,2.5,98,0.00,,---,0.00,VWS V14.01,2013-01-01 07:38:00,
2013-01-01 01:39:00,53.1,52.5,30.00,SE,135,0.0,0.0,98,0.00,,---,0.00,VWS V14.01,2013-01-01 07:39:00,
2013-01-01 01:40:00,53.1,52.5,30.00,SE,135,0.0,0.0,98,0.00,,---,0.00,VWS V14.01,2013-01-01 07:40:00,
2013-01-01 01:41:00,53.1,52.5,30.00,SE,135,0.0,0.0,98,0.00,,---,0.00,VWS V14.01,2013-01-01 07:41:00,
2013-01-01 01:42:00,53.1,52.5,30.00,SE,135,0.0,0.0,98,0.00,,---,0.00,VWS V14.01,2013-01-01 07:42:00,
2013-01-01 01:43:00,53.1,52.5,30.00,NNW,338,0.0,0.0,98,0.00,,---,0.00,VWS V14.01,2013-01-01 07:43:00,
2013-01-01 01:44:00,53.1,52.5,30.00,East,90,2.7,2.7,98,0.00,,---,0.00,VWS V14.01,2013-01-01 07:44:00,
2013-01-01 01:45:00,53.1,52.5,30.00,ESE,112,1.6,2.7,98,0.00,,---,0.00,VWS V14.01,2013-01-01 07:45:00,
2013-01-01 01:46:00,53.1,52.5,30.00,ESE,112,0.0,1.6,98,0.00,,---,0.00,VWS V14.01,2013-01-01 07:46:00,
2013-01-01 01:47:00,53.1,52.5,30.00,NW,315,1.3,1.3,98,0.00,,---,0.00,VWS V14.01,2013-01-01 07:47:00,
2013-01-01 01:48:00,53.1,52.5,30.00,NW,315,0.0,0.0,98,0.00,,---,0.00,VWS V14.01,2013-01-01 07:48:00,
2013-01-01 01:49:00,53.1,52.5,30.00,WNW,292,2.5,2.5,98,0.00,,---,0.00,VWS V14.01,2013-01-01 07:49:00,
2013-01-01 01:50:00,53.1,52.5,30.00,NW,315,1.6,2.5,98,0.00,,---,0.00,VWS V14.01,2013-01-01 07:50:00,
2013-01-01 01:51:00,53.1,52.5,30.00,NW,315,0.0,1.6,98,0.00,,---,0.00,VWS V14.01,2013-01-01 07:51:00,
2013-01-01 01:52:00,53.1,52.5,30.00,NNW,338,0.0,0.0,98,0.00,,---,0.00,VWS V14.01,2013-01-01 07:52:00,
2013-01-01 01:53:00,53.1,52.5,30.03,NNE,22,2.5,2.7,98,0.00,,---,0.00,VWS V14.01,2013-01-01 07:53:00,
2013-01-01 01:54:00,53.1,52.5,30.00,NW,315,0.0,0.9,98,0.00,,---,0.00,VWS V14.01,2013-01-01 07:54:00,
2013-01-01 01:55:00,53.1,52.5,30.00,NW,315,0.0,0.0,98,0.00,,---,0.00,VWS V14.01,2013-01-01 07:55:00,
2013-01-01 01:56:00,53.1,52.5,30.00,NW,315,0.0,0.0,98,0.00,,---,0.00,VWS V14.01,2013-01-01 07:56:00,
2013-01-01 01:57:00,53.1,52.5,30.00,NW,315,0.0,0.0,98,0.00,,---,0.00,VWS V14.01,2013-01-01 07:57:00,
2013-01-01 01:58:00,53.1,52.5,30.03,ENE,68,1.6,2.5,98,0.00,,---,0.00,VWS V14.01,2013-01-01 07:58:00,
2013-01-01 01:59:00,53.1,52.5,30.00,WNW,292,0.0,0.0,98,0.00,,---,0.00,VWS V14.01,2013-01-01 07:59:00,
2013-01-01 02:00:00,53.1,52.5,30.00,NNW,338,1.3,1.3,98,0.00,,---,0.00,VWS V14.01,2013-01-01 08:00:00,
2013-01-01 02:01:00,53.1,52.5,30.03,NNW,338,1.6,2.0,98,0.00,,---,0.00,VWS V14.01,2013-01-01 08:01:00,
2013-01-01 02:02:00,53.1,52.5,30.03,North,0,2.7,2.7,98,0.00,,---,0.00,VWS V14.01,2013-01-01 08:02:00,
2013-01-01 02:03:00,53.1,52.5,30.03,ENE,68,2.7,2.7,98,0.00,,---,0.00,VWS V14.01,2013-01-01 08:03:00,
2013-01-01 02:04:00,53.1,52.5,30.03,NNE,22,2.5,2.7,98,0.00,,---,0.00,VWS V14.01,2013-01-01 08:04:00,
2013-01-01 02:05:00,53.1,52.5,30.03,ENE,68,2.5,2.7,98,0.00,,---,0.00,VWS V14.01,2013-01-01 08:05:00,
2013-01-01 02:06:00,53.1,52.5,30.03,ENE,68,2.2,2.7,98,0.00,,---,0.00,VWS V14.01,2013-01-01 08:06:00,
2013-01-01 02:07:00,53.1,52.5,30.03,NE,45,2.2,2.2,98,0.00,,---,0.00,VWS V14.01,2013-01-01 08:07:00,
2013-01-01 02:08:00,53.1,52.5,30.00,North,0,1.3,2.5,98,0.00,,---,0.00,VWS V14.01,2013-01-01 08:08:00,
2013-01-01 02:09:00,53.1,52.5,30.03,ENE,68,2.2,2.2,98,0.00,,---,0.00,VWS V14.01,2013-01-01 08:09:00,
2013-01-01 02:10:00,53.1,52.5,30.03,ENE,68,1.6,2.2,98,0.00,,---,0.00,VWS V14.01,2013-01-01 08:10:00,
2013-01-01 02:11:00,53.1,52.5,30.03,ENE,68,2.0,2.0,98,0.00,,---,0.00,VWS V14.01,2013-01-01 08:11:00,
2013-01-01 02:12:00,53.1,52.5,30.03,NE,45,2.2,2.2,98,0.00,,---,0.00,VWS V14.01,2013-01-01 08:12:00,
2013-01-01 02:13:00,53.1,52.5,30.00,NNE,22,0.0,3.1,98,0.00,,---,0.00,VWS V14.01,2013-01-01 08:13:00,
2013-01-01 02:14:00,53.1,52.5,30.03,NNE,22,0.0,2.7,98,0.00,,---,0.00,VWS V14.01,2013-01-01 08:14:00,
2013-01-01 02:15:00,53.1,52.5,30.03,North,0,2.7,2.7,98,0.00,,---,0.00,VWS V14.01,2013-01-01 08:15:00,
2013-01-01 02:16:00,53.1,52.5,30.00,North,0,2.7,3.4,98,0.00,,---,0.00,VWS V14.01,2013-01-01 08:16:00,
2013-01-01 02:17:00,53.1,52.5,30.00,NNW,338,2.2,2.7,98,0.00,,---,0.00,VWS V14.01,2013-01-01 08:17:00,
2013-01-01 02:18:00,53.1,52.5,30.00,NNE,22,0.0,0.0,98,0.00,,---,0.00,VWS V14.01,2013-01-01 08:18:00,
2013-01-01 02:19:00,53.1,52.5,30.00,North,0,1.1,2.7,98,0.00,,---,0.00,VWS V14.01,2013-01-01 08:19:00,
2013-01-01 02:20:00,53.1,52.5,30.00,North,0,2.5,2.7,98,0.00,,---,0.00,VWS V14.01,2013-01-01 08:20:00,
2013-01-01 02:21:00,53.1,52.5,30.00,NNE,22,2.0,2.5,98,0.00,,---,0.00,VWS V14.01,2013-01-01 08:21:00,
2013-01-01 02:22:00,53.1,52.5,30.00,NE,45,2.7,2.7,98,0.00,,---,0.00,VWS V14.01,2013-01-01 08:22:00,
2013-01-01 02:23:00,53.1,52.5,30.00,ENE,68,2.5,2.9,98,0.00,,---,0.00,VWS V14.01,2013-01-01 08:23:00,
2013-01-01 02:24:00,53.1,52.5,30.00,NNE,22,1.6,1.6,98,0.00,,---,0.00,VWS V14.01,2013-01-01 08:24:00,
2013-01-01 02:25:00,53.1,52.5,30.00,NNE,22,0.0,1.6,98,0.00,,---,0.00,VWS V14.01,2013-01-01 08:25:00,
2013-01-01 02:26:00,53.1,52.5,30.00,NNE,22,0.0,0.0,98,0.00,,---,0.00,VWS V14.01,2013-01-01 08:26:00,
2013-01-01 02:27:00,53.1,52.5,30.00,NNE,22,0.0,0.0,98,0.00,,---,0.00,VWS V14.01,2013-01-01 08:27:00,
2013-01-01 02:28:00,53.1,52.5,30.00,East,90,2.0,2.5,98,0.00,,---,0.00,VWS V14.01,2013-01-01 08:28:00,
2013-01-01 02:29:00,53.1,52.5,30.00,NE,45,0.0,0.0,98,0.00,,---,0.00,VWS V14.01,2013-01-01 08:29:00,
2013-01-01 02:30:00,52.9,52.3,30.00,ENE,68,0.0,0.0,98,0.00,,---,0.00,VWS V14.01,2013-01-01 08:30:00,
2013-01-01 02:31:00,52.9,52.3,30.00,ENE,68,0.0,0.0,98,0.00,,---,0.00,VWS V14.01,2013-01-01 08:31:00,
2013-01-01 02:32:00,52.9,52.3,30.00,East,90,0.0,0.0,98,0.00,,---,0.00,VWS V14.01,2013-01-01 08:32:00,
2013-01-01 02:33:00,53.1,52.5,30.00,ENE,68,2.2,2.2,98,0.00,,---,0.00,VWS V14.01,2013-01-01 08:33:00,
2013-01-01 02:34:00,53.1,52.5,30.00,NE,45,2.9,2.9,98,0.00,,---,0.00,VWS V14.01,2013-01-01 08:34:00,
2013-01-01 02:35:00,53.1,52.5,30.00,ENE,68,2.9,3.1,98,0.00,,---,0.00,VWS V14.01,2013-01-01 08:35:00,
2013-01-01 02:36:00,53.1,52.5,30.00,NNE,22,2.7,4.7,98,0.00,,---,0.00,VWS V14.01,2013-01-01 08:36:00,
2013-01-01 02:37:00,53.1,52.5,30.00,NE,45,0.0,2.9,98,0.00,,---,0.00,VWS V14.01,2013-01-01 08:37:00,
2013-01-01 02:38:00,53.1,52.5,30.00,ENE,68,1.3,2.2,98,0.00,,---,0.00,VWS V14.01,2013-01-01 08:38:00,
2013-01-01 02:39:00,53.1,52.5,30.00,NNE,22,2.5,2.5,98,0.00,,---,0.00,VWS V14.01,2013-01-01 08:39:00,
2013-01-01 02:40:00,53.1,52.5,30.00,NE,45,0.0,2.9,98,0.00,,---,0.00,VWS V14.01,2013-01-01 08:40:00,
2013-01-01 02:41:00,53.1,52.5,30.00,NE,45,2.5,3.1,98,0.00,,---,0.00,VWS V14.01,2013-01-01 08:41:00,
2013-01-01 02:42:00,53.1,52.5,30.00,NE,45,0.0,2.5,98,0.00,,---,0.00,VWS V14.01,2013-01-01 08:42:00,
2013-01-01 02:43:00,53.1,52.5,30.00,NW,315,2.5,2.9,98,0.00,,---,0.00,VWS V14.01,2013-01-01 08:43:00,
2013-01-01 02:44:00,53.1,52.5,30.00,NE,45,2.0,2.2,98,0.00,,---,0.00,VWS V14.01,2013-01-01 08:44:00,
2013-01-01 02:45:00,53.1,52.5,30.00,East,90,2.5,2.5,98,0.00,,---,0.00,VWS V14.01,2013-01-01 08:45:00,
2013-01-01 02:46:00,53.1,52.5,30.00,ENE,68,2.2,3.4,98,0.00,,---,0.00,VWS V14.01,2013-01-01 08:46:00,
2013-01-01 02:47:00,53.1,52.5,30.00,ENE,68,2.2,2.7,98,0.00,,---,0.00,VWS V14.01,2013-01-01 08:47:00,
2013-01-01 02:48:00,53.1,52.5,30.00,West,270,2.7,2.7,98,0.00,,---,0.00,VWS V14.01,2013-01-01 08:48:00,
2013-01-01 02:49:00,53.1,52.5,30.00,NNE,22,2.7,2.7,98,0.00,,---,0.00,VWS V14.01,2013-01-01 08:49:00,
2013-01-01 02:50:00,53.1,52.5,30.00,NNE,22,2.5,2.7,98,0.00,,---,0.00,VWS V14.01,2013-01-01 08:50:00,
2013-01-01 02:51:00,53.1,52.5,30.00,North,0,2.7,2.9,98,0.00,,---,0.00,VWS V14.01,2013-01-01 08:51:00,
2013-01-01 02:52:00,53.1,52.5,30.00,North,0,2.5,2.9,98,0.00,,---,0.00,VWS V14.01,2013-01-01 08:52:00,
2013-01-01 02:53:00,53.1,52.5,30.00,NNW,338,2.5,3.6,98,0.00,,---,0.00,VWS V14.01,2013-01-01 08:53:00,
2013-01-01 02:54:00,53.1,52.5,30.00,NW,315,1.1,2.5,98,0.00,,---,0.00,VWS V14.01,2013-01-01 08:54:00,
2013-01-01 02:55:00,53.1,52.5,30.00,NW,315,1.3,1.3,98,0.00,,---,0.00,VWS V14.01,2013-01-01 08:55:00,
2013-01-01 02:56:00,53.1,52.5,30.00,NNW,338,2.0,2.5,98,0.00,,---,0.00,VWS V14.01,2013-01-01 08:56:00,
2013-01-01 02:57:00,53.1,52.5,30.00,NW,315,2.5,2.5,98,0.00,,---,0.00,VWS V14.01,2013-01-01 08:57:00,
2013-01-01 02:58:00,53.1,52.5,30.00,NNW,338,2.9,2.9,98,0.00,,---,0.00,VWS V14.01,2013-01-01 08:58:00,
2013-01-01 02:59:00,53.1,52.5,30.00,WNW,292,2.9,2.9,98,0.00,,---,0.00,VWS V14.01,2013-01-01 08:59:00,
2013-01-01 03:00:00,53.1,52.5,30.00,WNW,292,3.8,3.8,98,0.00,,---,0.00,VWS V14.01,2013-01-01 09:00:00,
2013-01-01 03:01:00,53.1,52.5,30.00,WNW,292,4.0,4.0,98,0.00,,---,0.00,VWS V14.01,2013-01-01 09:01:00,
2013-01-01 03:02:00,53.1,52.5,30.00,NNW,338,2.9,4.0,98,0.00,,---,0.00,VWS V14.01,2013-01-01 09:02:00,
2013-01-01 03:03:00,53.1,52.5,30.00,NNW,338,3.8,3.8,98,0.00,,---,0.00,VWS V14.01,2013-01-01 09:03:00,
2013-01-01 03:04:00,53.1,52.5,30.00,North,0,3.4,3.4,98,0.00,,---,0.00,VWS V14.01,2013-01-01 09:04:00,
2013-01-01 03:05:00,53.1,52.5,30.00,North,0,3.6,3.6,98,0.00,,---,0.00,VWS V14.01,2013-01-01 09:05:00,
2013-01-01 03:06:00,53.1,52.5,30.00,North,0,2.5,4.3,98,0.00,,---,0.00,VWS V14.01,2013-01-01 09:06:00,
2013-01-01 03:07:00,53.1,52.5,30.00,North,0,1.6,2.5,98,0.00,,---,0.00,VWS V14.01,2013-01-01 09:07:00,
2013-01-01 03:08:00,53.2,52.7,30.00,NNW,338,5.6,5.6,98,0.00,,---,0.00,VWS V14.01,2013-01-01 09:08:00,
2013-01-01 03:09:00,53.1,52.5,30.00,NNW,338,2.5,2.9,98,0.00,,---,0.00,VWS V14.01,2013-01-01 09:09:00,
2013-01-01 03:10:00,53.1,52.5,30.00,North,0,3.6,4.3,98,0.00,,---,0.00,VWS V14.01,2013-01-01 09:10:00,
2013-01-01 03:11:00,53.1,52.5,30.00,NNW,338,2.7,3.6,98,0.00,,---,0.00,VWS V14.01,2013-01-01 09:11:00,
2013-01-01 03:12:00,53.1,52.5,30.00,NNW,338,3.1,3.8,98,0.00,,---,0.00,VWS V14.01,2013-01-01 09:12:00,
2013-01-01 03:13:00,53.2,52.7,30.00,North,0,4.9,6.5,98,0.00,,---,0.00,VWS V14.01,2013-01-01 09:13:00,
2013-01-01 03:14:00,53.1,52.5,30.00,NNW,338,5.8,5.8,98,0.00,,---,0.00,VWS V14.01,2013-01-01 09:14:00,
2013-01-01 03:15:00,53.2,52.7,30.00,NNW,338,4.3,5.8,98,0.00,,---,0.00,VWS V14.01,2013-01-01 09:15:00,
2013-01-01 03:16:00,53.2,52.7,30.00,North,0,4.0,6.0,98,0.00,,---,0.00,VWS V14.01,2013-01-01 09:16:00,
2013-01-01 03:17:00,53.2,52.7,30.00,North,0,2.9,5.4,98,0.00,,---,0.00,VWS V14.01,2013-01-01 09:17:00,
2013-01-01 03:18:00,53.1,52.5,30.00,North,0,10.3,10.3,98,0.00,,---,0.00,VWS V14.01,2013-01-01 09:18:00,
2013-01-01 03:19:00,53.2,52.7,30.00,North,0,3.8,5.6,98,0.00,,---,0.00,VWS V14.01,2013-01-01 09:19:00,
2013-01-01 03:20:00,53.2,52.7,30.00,NNW,338,4.3,6.5,98,0.00,,---,0.00,VWS V14.01,2013-01-01 09:20:00,
2013-01-01 03:21:00,53.1,52.5,30.00,North,0,3.6,4.3,98,0.00,,---,0.00,VWS V14.01,2013-01-01 09:21:00,
2013-01-01 03:22:00,53.1,52.5,30.00,North,0,4.3,4.3,98,0.00,,---,0.00,VWS V14.01,2013-01-01 09:22:00,
2013-01-01 03:23:00,52.4,51.8,30.03,North,0,9.8,11.0,98,0.04,,---,0.04,VWS V14.01,2013-01-01 09:23:00,
2013-01-01 03:24:00,53.1,52.5,30.00,NNW,338,1.3,6.5,98,0.00,,---,0.00,VWS V14.01,2013-01-01 09:24:00,
2013-01-01 03:25:00,53.1,52.5,30.00,NW,315,2.9,2.9,98,0.00,,---,0.00,VWS V14.01,2013-01-01 09:25:00,
2013-01-01 03:26:00,53.1,52.5,30.00,NNW,338,3.4,4.7,98,0.00,,---,0.00,VWS V14.01,2013-01-01 09:26:00,
2013-01-01 03:27:00,53.1,52.5,30.00,North,0,4.5,5.4,98,0.00,,---,0.00,VWS V14.01,2013-01-01 09:27:00,
2013-01-01 03:28:00,52.2,51.4,30.03,North,0,6.5,8.1,97,0.04,,---,0.04,VWS V14.01,2013-01-01 09:28:00,
2013-01-01 03:29:00,52.9,52.3,30.00,North,0,5.8,10.3,98,0.00,,---,0.00,VWS V14.01,2013-01-01 09:29:00,
2013-01-01 03:30:00,52.9,52.3,30.00,North,0,10.5,10.5,98,0.04,,---,0.04,VWS V14.01,2013-01-01 09:30:00,
2013-01-01 03:31:00,52.7,52.2,30.03,NNW,338,11.0,12.1,98,0.04,,---,0.04,VWS V14.01,2013-01-01 09:31:00,
2013-01-01 03:32:00,52.5,52.0,30.03,North,0,7.8,11.0,98,0.04,,---,0.04,VWS V14.01,2013-01-01 09:32:00,
2013-01-01 03:33:00,52.2,51.4,30.03,WNW,292,4.9,7.2,97,0.04,,---,0.04,VWS V14.01,2013-01-01 09:33:00,
2013-01-01 03:34:00,52.4,51.8,30.03,North,0,7.8,11.0,98,0.04,,---,0.04,VWS V14.01,2013-01-01 09:34:00,
2013-01-01 03:35:00,52.4,51.8,30.03,North,0,6.3,10.1,98,0.04,,---,0.04,VWS V14.01,2013-01-01 09:35:00,
2013-01-01 03:36:00,52.4,51.8,30.03,North,0,6.5,8.5,98,0.04,,---,0.04,VWS V14.01,2013-01-01 09:36:00,
2013-01-01 03:37:00,52.2,51.4,30.03,North,0,7.8,11.0,97,0.04,,---,0.04,VWS V14.01,2013-01-01 09:37:00,
2013-01-01 03:38:00,52.0,51.2,30.06,NE,45,7.2,7.2,97,0.04,,---,0.04,VWS V14.01,2013-01-01 09:38:00,
2013-01-01 03:39:00,52.2,51.4,30.03,NNW,338,7.4,8.1,97,0.04,,---,0.04,VWS V14.01,2013-01-01 09:39:00,
2013-01-01 03:40:00,52.2,51.4,30.03,NNW,338,4.5,7.4,97,0.04,,---,0.04,VWS V14.01,2013-01-01 09:40:00,
2013-01-01 03:41:00,52.2,51.4,30.03,NW,315,3.4,8.1,97,0.04,,---,0.04,VWS V14.01,2013-01-01 09:41:00,
2013-01-01 03:42:00,52.2,51.4,30.03,NW,315,4.0,4.0,97,0.04,,---,0.04,VWS V14.01,2013-01-01 09:42:00,
2013-01-01 03:43:00,51.8,51.0,30.06,NNW,338,5.4,6.7,97,0.08,,---,0.08,VWS V14.01,2013-01-01 09:43:00,
2013-01-01 03:44:00,52.2,51.4,30.03,NW,315,3.8,7.2,97,0.04,,---,0.04,VWS V14.01,2013-01-01 09:44:00,
2013-01-01 03:45:00,52.2,51.4,30.03,NNW,338,3.8,4.7,97,0.04,,---,0.04,VWS V14.01,2013-01-01 09:45:00,
2013-01-01 03:46:00,52.0,51.2,30.06,NNW,338,5.4,5.4,97,0.04,,---,0.04,VWS V14.01,2013-01-01 09:46:00,
2013-01-01 03:47:00,52.0,51.2,30.06,North,0,6.3,6.3,97,0.04,,---,0.04,VWS V14.01,2013-01-01 09:47:00,
2013-01-01 03:48:00,52.0,51.2,30.06,NNE,22,6.3,8.1,97,0.04,,---,0.04,VWS V14.01,2013-01-01 09:48:00,
2013-01-01 03:49:00,51.5,50.7,30.06,NNE,22,5.4,5.4,97,0.08,,---,0.08,VWS V14.01,2013-01-01 09:49:00,
2013-01-01 03:50:00,51.8,51.0,30.06,NNE,22,8.5,8.5,97,0.04,,---,0.04,VWS V14.01,2013-01-01 09:50:00,
2013-01-01 03:51:00,51.8,51.0,30.06,North,0,7.6,9.0,97,0.08,,---,0.08,VWS V14.01,2013-01-01 09:51:00,
2013-01-01 03:52:00,51.8,51.0,30.06,NNW,338,6.5,7.6,97,0.08,,---,0.08,VWS V14.01,2013-01-01 09:52:00,
2013-01-01 03:53:00,51.8,51.0,30.06,NNW,338,6.7,6.7,97,0.08,,---,0.08,VWS V14.01,2013-01-01 09:53:00,
2013-01-01 03:54:00,51.5,50.7,30.06,West,270,2.0,2.0,97,0.08,,---,0.08,VWS V14.01,2013-01-01 09:54:00,
2013-01-01 03:55:00,51.7,50.8,30.06,North,0,5.8,8.1,97,0.08,,---,0.08,VWS V14.01,2013-01-01 09:55:00,
2013-01-01 03:56:00,51.7,50.8,30.06,North,0,7.4,7.8,97,0.08,,---,0.08,VWS V14.01,2013-01-01 09:56:00,
2013-01-01 03:57:00,51.5,50.7,30.06,NNE,22,7.4,7.4,97,0.08,,---,0.08,VWS V14.01,2013-01-01 09:57:00,
2013-01-01 03:58:00,51.5,50.7,30.06,NE,45,4.0,7.4,97,0.08,,---,0.08,VWS V14.01,2013-01-01 09:58:00,
2013-01-01 03:59:00,51.1,50.3,30.06,NW,315,5.8,5.8,97,0.08,,---,0.08,VWS V14.01,2013-01-01 09:59:00,
2013-01-01 04:00:00,51.5,50.7,30.06,North,0,7.8,8.5,97,0.08,,---,0.08,VWS V14.01,2013-01-01 10:00:00,
2013-01-01 04:01:00,51.5,50.7,30.06,NNW,338,2.7,7.8,97,0.08,,---,0.08,VWS V14.01,2013-01-01 10:01:00,
2013-01-01 04:02:00,51.5,50.7,30.06,NW,315,2.2,2.9,97,0.08,,---,0.08,VWS V14.01,2013-01-01 10:02:00,
2013-01-01 04:03:00,51.5,50.7,30.06,West,270,2.0,2.2,97,0.08,,---,0.08,VWS V14.01,2013-01-01 10:03:00,
2013-01-01 04:04:00,50.9,50.1,30.06,WNW,292,1.6,2.2,97,0.08,,---,0.08,VWS V14.01,2013-01-01 10:04:00,
2013-01-01 04:05:00,51.3,50.5,30.06,North,0,1.6,3.4,97,0.08,,---,0.08,VWS V14.01,2013-01-01 10:05:00,
2013-01-01 04:06:00,51.3,50.5,30.06,NW,315,4.5,4.5,97,0.08,,---,0.08,VWS V14.01,2013-01-01 10:06:00,
2013-01-01 04:07:00,51.3,50.5,30.06,NNW,338,3.1,4.5,97,0.08,,---,0.08,VWS V14.01,2013-01-01 10:07:00,
2013-01-01 04:08:00,51.1,50.3,30.06,NNW,338,4.7,4.7,97,0.08,,---,0.08,VWS V14.01,2013-01-01 10:08:00,
2013-01-01 04:09:00,50.8,50.0,30.06,North,0,6.0,6.0,97,0.08,,---,0.08,VWS V14.01,2013-01-01 10:09:00,
2013-01-01 04:10:00,50.9,50.1,30.06,North,0,4.3,4.9,97,0.08,,---,0.08,VWS V14.01,2013-01-01 10:10:00,
2013-01-01 04:11:00,50.9,50.1,30.06,NW,315,2.5,4.3,97,0.08,,---,0.08,VWS V14.01,2013-01-01 10:11:00,
2013-01-01 04:12:00,50.9,50.1,30.06,NW,315,3.6,3.6,97,0.08,,---,0.08,VWS V14.01,2013-01-01 10:12:00,
2013-01-01 04:13:00,50.9,50.1,30.06,North,0,2.2,3.6,97,0.08,,---,0.08,VWS V14.01,2013-01-01 10:13:00,
2013-01-01 04:14:00,50.8,50.0,30.06,NNE,22,3.6,6.3,97,0.08,,---,0.08,VWS V14.01,2013-01-01 10:14:00,
2013-01-01 04:15:00,50.8,50.0,30.06,NNE,22,3.4,4.0,97,0.08,,---,0.08,VWS V14.01,2013-01-01 10:15:00,
2013-01-01 04:16:00,50.8,50.0,30.06,North,0,3.6,3.6,97,0.08,,---,0.08,VWS V14.01,2013-01-01 10:16:00,
2013-01-01 04:17:00,50.8,50.0,30.06,NNW,338,2.5,3.6,97,0.08,,---,0.08,VWS V14.01,2013-01-01 10:17:00,
2013-01-01 04:19:00,50.4,49.6,30.06,NNE,22,8.1,8.1,97,0.08,,---,0.08,VWS V14.01,2013-01-01 10:19:00,
2013-01-01 04:24:00,49.9,48.8,30.03,NNW,338,10.1,10.1,96,0.04,,---,0.08,VWS V14.01,2013-01-01 10:24:00,
2013-01-01 04:29:00,49.5,48.2,30.03,NNW,338,12.3,12.3,95,0.04,,---,0.08,VWS V14.01,2013-01-01 10:29:00,
2013-01-01 04:34:00,49.3,48.0,30.03,North,0,4.0,6.0,95,0.04,,---,0.08,VWS V14.01,2013-01-01 10:34:00,
2013-01-01 04:39:00,49.2,47.8,30.06,NE,45,3.1,3.8,95,0.04,,---,0.08,VWS V14.01,2013-01-01 10:39:00,
2013-01-01 04:44:00,49.0,47.6,30.06,NNE,22,4.3,7.4,95,0.00,,---,0.08,VWS V14.01,2013-01-01 10:44:00,
2013-01-01 04:49:00,48.8,47.5,30.06,North,0,5.6,5.6,95,0.00,,---,0.08,VWS V14.01,2013-01-01 10:49:00,
2013-01-01 04:54:00,48.6,47.3,30.06,ENE,68,3.4,3.6,95,0.00,,---,0.08,VWS V14.01,2013-01-01 10:54:00,
2013-01-01 04:59:00,48.3,46.9,30.06,NNE,22,1.3,4.9,95,0.00,,---,0.08,VWS V14.01,2013-01-01 10:59:00,
2013-01-01 05:04:00,48.1,46.7,30.06,North,0,0.9,3.8,95,0.00,,---,0.08,VWS V14.01,2013-01-01 11:04:00,
2013-01-01 05:09:00,48.1,46.7,30.06,ESE,112,0.0,0.0,95,0.00,,---,0.08,VWS V14.01,2013-01-01 11:09:00,
2013-01-01 05:14:00,47.9,46.6,30.06,NW,315,3.4,4.0,95,0.00,,---,0.08,VWS V14.01,2013-01-01 11:14:00,
2013-01-01 05:19:00,47.9,46.6,30.06,SSE,158,0.0,2.0,95,0.00,,---,0.08,VWS V14.01,2013-01-01 11:19:00,
2013-01-01 05:24:00,47.8,46.4,30.09,NW,315,0.0,2.2,95,0.00,,---,0.08,VWS V14.01,2013-01-01 11:24:00,
2013-01-01 05:29:00,47.8,46.4,30.09,North,0,2.5,2.7,95,0.00,,---,0.08,VWS V14.01,2013-01-01 11:29:00,
2013-01-01 05:34:00,47.6,46.2,30.09,NE,45,2.2,4.0,95,0.00,,---,0.08,VWS V14.01,2013-01-01 11:34:00,
2013-01-01 05:39:00,47.4,46.0,30.09,NW,315,3.1,4.0,95,0.00,,---,0.08,VWS V14.01,2013-01-01 11:39:00,
2013-01-01 05:44:00,47.2,45.9,30.09,NNW,338,5.4,6.3,95,0.00,,---,0.08,VWS V14.01,2013-01-01 11:44:00,
2013-01-01 05:49:00,47.2,45.9,30.09,NNW,338,5.4,7.2,95,0.00,,---,0.08,VWS V14.01,2013-01-01 11:49:00,
2013-01-01 05:54:00,47.2,45.9,30.09,North,0,3.8,6.3,95,0.00,,---,0.08,VWS V14.01,2013-01-01 11:54:00,
2013-01-01 05:59:00,47.2,45.9,30.09,North,0,3.6,6.5,95,0.00,,---,0.08,VWS V14.01,2013-01-01 11:59:00,
2013-01-01 06:04:00,47.0,45.7,30.09,North,0,3.1,3.6,95,0.00,,---,0.08,VWS V14.01,2013-01-01 12:04:00,
2013-01-01 06:09:00,47.0,45.7,30.09,NNE,22,4.0,4.3,95,0.00,,---,0.08,VWS V14.01,2013-01-01 12:09:00,
2013-01-01 06:14:00,47.0,45.7,30.09,North,0,7.8,8.5,95,0.00,,---,0.08,VWS V14.01,2013-01-01 12:14:00,
2013-01-01 06:19:00,46.9,45.5,30.09,NNE,22,4.9,11.0,95,0.00,,---,0.08,VWS V14.01,2013-01-01 12:19:00,
2013-01-01 06:24:00,46.9,45.5,30.12,NE,45,3.1,3.1,95,0.00,,---,0.08,VWS V14.01,2013-01-01 12:24:00,
2013-01-01 06:29:00,46.9,45.5,30.12,NE,45,3.1,3.1,95,0.00,,---,0.08,VWS V14.01,2013-01-01 12:29:00,
2013-01-01 06:34:00,46.9,45.5,30.12,NE,45,3.1,3.1,95,0.00,,---,0.08,VWS V14.01,2013-01-01 12:34:00,
2013-01-01 06:39:00,46.9,45.5,30.12,NE,45,3.1,3.1,95,0.00,,---,0.08,VWS V14.01,2013-01-01 12:39:00,
2013-01-01 06:44:00,46.9,45.5,30.12,NE,45,3.1,3.1,95,0.00,,---,0.08,VWS V14.01,2013-01-01 12:44:00,
2013-01-01 06:49:00,46.9,45.5,30.12,NE,45,3.1,3.1,95,0.00,,---,0.08,VWS V14.01,2013-01-01 12:49:00,
2013-01-01 06:54:00,46.5,45.2,30.12,North,0,5.4,6.0,95,0.00,,---,0.08,VWS V14.01,2013-01-01 12:54:00,
2013-01-01 06:59:00,46.3,44.7,30.12,NNW,338,4.7,6.3,94,0.00,,---,0.08,VWS V14.01,2013-01-01 12:59:00,
2013-01-01 07:04:00,46.3,44.7,30.12,North,0,4.7,7.4,94,0.00,,---,0.08,VWS V14.01,2013-01-01 13:04:00,
2013-01-01 07:09:00,46.2,44.2,30.12,North,0,2.7,7.4,93,0.00,,---,0.08,VWS V14.01,2013-01-01 13:09:00,
2013-01-01 07:14:00,46.0,43.8,30.12,NNE,22,6.5,6.5,92,0.00,,---,0.08,VWS V14.01,2013-01-01 13:14:00,
2013-01-01 07:19:00,45.8,43.3,30.12,NW,315,7.6,7.6,91,0.00,,---,0.08,VWS V14.01,2013-01-01 13:19:00,
2013-01-01 07:24:00,45.6,43.2,30.15,North,0,5.8,6.5,91,0.00,,---,0.08,VWS V14.01,2013-01-01 13:24:00,
2013-01-01 07:29:00,45.6,43.2,30.15,NE,45,4.3,4.3,91,0.00,,---,0.08,VWS V14.01,2013-01-01 13:29:00,
2013-01-01 07:34:00,45.3,42.8,30.15,North,0,8.5,8.5,91,0.00,,---,0.08,VWS V14.01,2013-01-01 13:34:00,
2013-01-01 07:39:00,45.1,42.3,30.15,North,0,6.3,7.6,90,0.00,,---,0.08,VWS V14.01,2013-01-01 13:39:00,
2013-01-01 07:44:00,45.1,42.6,30.15,NNE,22,4.0,4.0,91,0.00,,---,0.08,VWS V14.01,2013-01-01 13:44:00,
2013-01-01 07:49:00,45.1,42.6,30.15,North,0,5.4,5.4,91,0.00,,---,0.08,VWS V14.01,2013-01-01 13:49:00,
2013-01-01 07:54:00,45.1,42.6,30.12,NW,315,2.5,4.7,91,0.00,,---,0.08,VWS V14.01,2013-01-01 13:54:00,
2013-01-01 07:59:00,44.9,42.5,30.12,NNE,22,1.6,2.5,91,0.00,,---,0.08,VWS V14.01,2013-01-01 13:59:00,
2013-01-01 08:04:00,44.9,42.5,30.12,East,90,0.0,0.0,91,0.00,,---,0.08,VWS V14.01,2013-01-01 14:04:00,
2013-01-01 08:09:00,44.9,42.7,30.18,NNW,338,1.3,2.0,92,0.00,,---,0.08,VWS V14.01,2013-01-01 14:09:00,
2013-01-01 08:14:00,44.7,42.6,30.18,NNW,338,6.3,6.3,92,0.00,,---,0.08,VWS V14.01,2013-01-01 14:14:00,
2013-01-01 08:19:00,44.7,42.6,30.18,North,0,5.8,5.8,92,0.00,,---,0.08,VWS V14.01,2013-01-01 14:19:00,
2013-01-01 08:24:00,44.7,42.6,30.18,North,0,3.4,3.4,92,0.00,,---,0.08,VWS V14.01,2013-01-01 14:24:00,
2013-01-01 08:30:00,44.7,42.8,30.18,North,0,2.7,4.0,93,0.00,,---,0.08,VWS V14.01,2013-01-01 14:30:00,
2013-01-01 08:34:00,44.9,42.7,30.18,NNW,338,4.0,5.8,92,0.00,,---,0.08,VWS V14.01,2013-01-01 14:34:00,
2013-01-01 08:40:00,45.1,42.9,30.18,North,0,2.7,2.7,92,0.00,,---,0.08,VWS V14.01,2013-01-01 14:40:00,
2013-01-01 08:45:00,45.5,43.3,30.18,NNW,338,2.2,2.2,92,0.00,,---,0.08,VWS V14.01,2013-01-01 14:45:00,
2013-01-01 08:50:00,45.5,42.7,30.18,North,0,4.9,5.8,90,0.00,,---,0.08,VWS V14.01,2013-01-01 14:50:00,
2013-01-01 08:55:00,45.5,42.1,30.15,North,0,6.0,7.4,88,0.00,,---,0.08,VWS V14.01,2013-01-01 14:55:00,
2013-01-01 09:00:00,45.5,42.1,30.15,NNW,338,5.6,6.0,88,0.00,,---,0.08,VWS V14.01,2013-01-01 15:00:00,
2013-01-01 09:05:00,45.5,42.1,30.15,North,0,7.4,13.2,88,0.00,,---,0.08,VWS V14.01,2013-01-01 15:05:00,
2013-01-01 09:10:00,45.3,41.9,30.18,North,0,6.0,6.0,88,0.00,,---,0.08,VWS V14.01,2013-01-01 15:10:00,
2013-01-01 09:15:00,45.1,42.0,30.18,NNW,338,3.6,7.2,89,0.00,,---,0.08,VWS V14.01,2013-01-01 15:15:00,
2013-01-01 09:20:00,45.1,41.5,30.18,North,0,5.8,5.8,87,0.00,,---,0.08,VWS V14.01,2013-01-01 15:20:00,
2013-01-01 09:25:00,45.1,40.9,30.21,NW,315,7.4,8.5,85,0.00,,---,0.08,VWS V14.01,2013-01-01 15:25:00,
2013-01-01 09:30:00,45.3,41.0,30.21,NW,315,4.9,10.3,85,0.00,,---,0.08,VWS V14.01,2013-01-01 15:30:00,
2013-01-01 09:35:00,45.3,40.7,30.21,NNW,338,5.8,6.3,84,0.00,,---,0.08,VWS V14.01,2013-01-01 15:35:00,
2013-01-01 09:40:00,45.3,41.0,30.21,NNW,338,4.9,5.4,85,0.00,,---,0.08,VWS V14.01,2013-01-01 15:40:00,
2013-01-01 09:45:00,45.3,40.7,30.21,NW,315,6.5,7.4,84,0.00,,---,0.08,VWS V14.01,2013-01-01 15:45:00,
2013-01-01 09:50:00,45.5,40.9,30.21,NNW,338,7.4,7.4,84,0.00,,---,0.08,VWS V14.01,2013-01-01 15:50:00,
2013-01-01 09:55:00,45.5,40.9,30.21,NNW,338,3.8,6.5,84,0.00,,---,0.08,VWS V14.01,2013-01-01 15:55:00,
2013-01-01 10:00:00,45.5,40.6,30.21,North,0,9.8,9.8,83,0.00,,---,0.08,VWS V14.01,2013-01-01 16:00:00,
2013-01-01 10:05:00,46.0,41.1,30.21,NW,315,2.5,2.9,83,0.00,,---,0.08,VWS V14.01,2013-01-01 16:05:00,
2013-01-01 10:10:00,45.8,40.3,30.24,NNW,338,4.0,7.2,81,0.00,,---,0.08,VWS V14.01,2013-01-01 16:10:00,
2013-01-01 10:15:00,46.0,40.8,30.24,North,0,6.3,7.6,82,0.00,,---,0.08,VWS V14.01,2013-01-01 16:15:00,
2013-01-01 10:20:00,46.3,40.5,30.24,NNW,338,5.8,7.4,80,0.00,,---,0.08,VWS V14.01,2013-01-01 16:20:00,
2013-01-01 10:25:00,46.3,40.5,30.24,North,0,3.1,4.3,80,0.00,,---,0.08,VWS V14.01,2013-01-01 16:25:00,
2013-01-01 10:30:00,46.2,40.7,30.24,NNW,338,8.7,8.7,81,0.00,,---,0.08,VWS V14.01,2013-01-01 16:30:00,
2013-01-01 10:35:00,46.2,40.3,30.24,NNW,338,5.4,8.5,80,0.00,,---,0.08,VWS V14.01,2013-01-01 16:35:00,
2013-01-01 10:40:00,46.0,40.5,30.24,NNW,338,6.0,6.5,81,0.00,,---,0.08,VWS V14.01,2013-01-01 16:40:00,
2013-01-01 10:45:00,45.8,40.6,30.24,NNW,338,5.4,5.6,82,0.00,,---,0.08,VWS V14.01,2013-01-01 16:45:00,
2013-01-01 10:50:00,45.5,40.3,30.24,NNW,338,7.8,10.1,82,0.00,,---,0.08,VWS V14.01,2013-01-01 16:50:00,
2013-01-01 10:55:00,45.6,40.1,30.24,WNW,292,6.5,7.2,81,0.00,,---,0.08,VWS V14.01,2013-01-01 16:55:00,
2013-01-01 11:00:00,45.5,40.0,30.24,NNW,338,10.1,10.1,81,0.00,,---,0.08,VWS V14.01,2013-01-01 17:00:00,
2013-01-01 11:05:00,45.6,40.1,30.24,NE,45,7.6,10.1,81,0.00,,---,0.08,VWS V14.01,2013-01-01 17:05:00,
2013-01-01 11:10:00,46.9,41.3,30.24,NW,315,4.9,5.4,81,0.00,,---,0.08,VWS V14.01,2013-01-01 17:10:00,
2013-01-01 11:15:00,47.8,40.9,30.24,North,0,4.9,6.0,77,0.00,,---,0.08,VWS V14.01,2013-01-01 17:15:00,
2013-01-01 11:20:00,49.3,40.3,30.24,NNW,338,8.5,10.5,71,0.00,,---,0.08,VWS V14.01,2013-01-01 17:20:00,
2013-01-01 11:25:00,49.2,40.2,30.24,NW,315,3.6,5.6,71,0.00,,---,0.08,VWS V14.01,2013-01-01 17:25:00,
2013-01-01 11:30:00,48.1,39.5,30.24,North,0,5.6,8.1,72,0.00,,---,0.08,VWS V14.01,2013-01-01 17:30:00,
2013-01-01 11:35:00,46.7,39.2,30.24,West,270,12.3,12.3,75,0.00,,---,0.08,VWS V14.01,2013-01-01 17:35:00,
2013-01-01 11:40:00,45.6,39.2,30.24,NNW,338,10.3,10.5,78,0.00,,---,0.08,VWS V14.01,2013-01-01 17:40:00,
2013-01-01 11:45:00,45.1,39.0,30.24,NNW,338,6.3,10.7,79,0.00,,---,0.08,VWS V14.01,2013-01-01 17:45:00,
2013-01-01 11:50:00,44.9,39.1,30.24,NNW,338,9.8,9.8,80,0.00,,---,0.08,VWS V14.01,2013-01-01 17:50:00,
2013-01-01 11:55:00,44.7,39.3,30.24,NW,315,6.0,6.0,81,0.00,,---,0.08,VWS V14.01,2013-01-01 17:55:00,
2013-01-01 12:00:00,44.6,38.8,30.24,NNW,338,9.6,9.6,80,0.00,,---,0.08,VWS V14.01,2013-01-01 18:00:00,
2013-01-01 12:05:00,44.4,38.9,30.24,NW,315,10.3,10.3,81,0.00,,---,0.08,VWS V14.01,2013-01-01 18:05:00,
2013-01-01 12:10:00,44.2,38.1,30.24,NNW,338,8.5,10.3,79,0.00,,---,0.08,VWS V14.01,2013-01-01 18:10:00,
2013-01-01 12:15:00,44.0,38.3,30.24,NNW,338,8.7,10.3,80,0.00,,---,0.08,VWS V14.01,2013-01-01 18:15:00,
2013-01-01 12:20:00,44.0,38.9,30.24,NNW,338,8.1,8.1,82,0.00,,---,0.08,VWS V14.01,2013-01-01 18:20:00,
2013-01-01 12:25:00,44.6,39.1,30.21,NW,315,7.4,7.4,81,0.00,,---,0.08,VWS V14.01,2013-01-01 18:25:00,
2013-01-01 12:31:00,44.4,38.3,30.21,WNW,292,11.2,11.2,79,0.00,,---,0.08,VWS V14.01,2013-01-01 18:31:00,
2013-01-01 12:36:00,44.4,38.0,30.21,NNW,338,8.1,8.1,78,0.00,,---,0.08,VWS V14.01,2013-01-01 18:36:00,
2013-01-01 12:41:00,44.4,37.3,30.24,WNW,292,9.8,11.0,76,0.00,,---,0.08,VWS V14.01,2013-01-01 18:41:00,
2013-01-01 12:46:00,44.6,37.5,30.24,NNW,338,9.0,9.0,76,0.00,,---,0.08,VWS V14.01,2013-01-01 18:46:00,
2013-01-01 12:51:00,44.6,37.1,30.24,NNW,338,6.5,8.7,75,0.00,,---,0.08,VWS V14.01,2013-01-01 18:51:00,
2013-01-01 12:56:00,44.2,36.8,30.21,WNW,292,8.5,10.5,75,0.00,,---,0.08,VWS V14.01,2013-01-01 18:56:00,
2013-01-01 13:01:00,44.2,36.8,30.21,NNW,338,8.7,11.2,75,0.00,,---,0.08,VWS V14.01,2013-01-01 19:01:00,
2013-01-01 13:06:00,44.0,36.6,30.21,North,0,8.5,8.5,75,0.00,,---,0.08,VWS V14.01,2013-01-01 19:06:00,
2013-01-01 13:11:00,44.0,37.0,30.21,NNW,338,9.8,9.8,76,0.00,,---,0.08,VWS V14.01,2013-01-01 19:11:00,
2013-01-01 13:16:00,44.2,36.8,30.21,NNW,338,7.4,7.4,75,0.00,,---,0.08,VWS V14.01,2013-01-01 19:16:00,
2013-01-01 13:21:00,44.2,36.8,30.21,NNW,338,6.5,12.1,75,0.00,,---,0.08,VWS V14.01,2013-01-01 19:21:00,
2013-01-01 13:26:00,44.6,37.1,30.21,North,0,8.5,8.5,75,0.00,,---,0.08,VWS V14.01,2013-01-01 19:26:00,
2013-01-01 13:31:00,45.1,37.3,30.21,WNW,292,3.4,7.6,74,0.00,,---,0.08,VWS V14.01,2013-01-01 19:31:00,
2013-01-01 13:36:00,45.3,37.5,30.21,NNW,338,10.3,12.5,74,0.00,,---,0.08,VWS V14.01,2013-01-01 19:36:00,
2013-01-01 13:41:00,46.0,37.5,30.18,WNW,292,3.4,3.8,72,0.00,,---,0.08,VWS V14.01,2013-01-01 19:41:00,
2013-01-01 13:46:00,45.8,37.0,30.18,North,0,12.3,12.3,71,0.00,,---,0.08,VWS V14.01,2013-01-01 19:46:00,
2013-01-01 13:51:00,46.7,37.4,30.18,NNW,338,4.0,8.1,70,0.00,,---,0.08,VWS V14.01,2013-01-01 19:51:00,
2013-01-01 13:56:00,47.6,37.5,30.18,NW,315,3.4,6.3,68,0.00,,---,0.08,VWS V14.01,2013-01-01 19:56:00,
2013-01-01 14:01:00,47.8,37.3,30.18,NW,315,2.9,5.6,67,0.00,,---,0.08,VWS V14.01,2013-01-01 20:01:00,
2013-01-01 14:06:00,48.1,37.3,30.18,West,270,2.0,6.5,66,0.00,,---,0.08,VWS V14.01,2013-01-01 20:06:00,
2013-01-01 14:11:00,47.8,36.2,30.18,NNW,338,3.4,6.5,64,0.00,,---,0.08,VWS V14.01,2013-01-01 20:11:00,
2013-01-01 14:16:00,47.9,36.3,30.18,NNW,338,8.7,10.1,64,0.00,,---,0.08,VWS V14.01,2013-01-01 20:16:00,
2013-01-01 14:21:00,48.6,37.0,30.18,NNW,338,4.9,5.6,64,0.00,,---,0.08,VWS V14.01,2013-01-01 20:21:00,
2013-01-01 14:26:00,48.6,36.6,30.18,North,0,6.5,6.5,63,0.00,,---,0.08,VWS V14.01,2013-01-01 20:26:00,
2013-01-01 14:31:00,47.9,36.0,30.18,North,0,3.4,8.5,63,0.00,,---,0.08,VWS V14.01,2013-01-01 20:31:00,
2013-01-01 14:36:00,48.5,36.5,30.15,NNW,338,3.4,6.0,63,0.00,,---,0.08,VWS V14.01,2013-01-01 20:36:00,
2013-01-01 14:41:00,48.6,36.6,30.15,WNW,292,6.3,7.4,63,0.00,,---,0.08,VWS V14.01,2013-01-01 20:41:00,
2013-01-01 14:46:00,48.6,36.6,30.15,North,0,6.3,7.2,63,0.00,,---,0.08,VWS V14.01,2013-01-01 20:46:00,
2013-01-01 14:51:00,48.8,36.8,30.18,WNW,292,7.6,7.6,63,0.00,,---,0.08,VWS V14.01,2013-01-01 20:51:00,
2013-01-01 14:56:00,48.8,36.0,30.18,NW,315,4.7,5.8,61,0.00,,---,0.08,VWS V14.01,2013-01-01 20:56:00,
2013-01-01 15:01:00,48.8,35.6,30.18,NW,315,4.0,8.5,60,0.00,,---,0.08,VWS V14.01,2013-01-01 21:01:00,
2013-01-01 15:06:00,49.0,35.7,30.18,NNW,338,7.4,7.4,60,0.00,,---,0.08,VWS V14.01,2013-01-01 21:06:00,
2013-01-01 15:11:00,49.2,36.3,30.18,NNW,338,4.9,4.9,61,0.00,,---,0.08,VWS V14.01,2013-01-01 21:11:00,
2013-01-01 15:16:00,49.3,35.6,30.18,NW,315,3.6,3.6,59,0.00,,---,0.08,VWS V14.01,2013-01-01 21:16:00,
2013-01-01 15:21:00,49.2,35.0,30.18,NW,315,7.8,7.8,58,0.00,,---,0.08,VWS V14.01,2013-01-01 21:21:00,
2013-01-01 15:26:00,48.8,34.7,30.18,NNW,338,7.8,7.8,58,0.00,,---,0.08,VWS V14.01,2013-01-01 21:26:00,
2013-01-01 15:31:00,48.8,34.7,30.18,WNW,292,4.0,6.0,58,0.00,,---,0.08,VWS V14.01,2013-01-01 21:31:00,
2013-01-01 15:36:00,49.3,35.2,30.18,NNW,338,2.7,2.7,58,0.00,,---,0.08,VWS V14.01,2013-01-01 21:36:00,
2013-01-01 15:42:00,50.0,35.9,30.18,WNW,292,4.0,4.0,58,0.00,,---,0.08,VWS V14.01,2013-01-01 21:42:00,
2013-01-01 15:47:00,50.0,35.0,30.18,NNW,338,4.0,6.7,56,0.00,,---,0.08,VWS V14.01,2013-01-01 21:47:00,
2013-01-01 15:52:00,49.5,34.5,30.21,WNW,292,7.8,7.8,56,0.00,,---,0.08,VWS V14.01,2013-01-01 21:52:00,
2013-01-01 15:57:00,50.0,35.0,30.21,NW,315,2.7,3.8,56,0.00,,---,0.08,VWS V14.01,2013-01-01 21:57:00,
2013-01-01 16:02:00,49.2,34.2,30.21,West,270,2.9,3.8,56,0.00,,---,0.08,VWS V14.01,2013-01-01 22:02:00,
2013-01-01 16:07:00,49.0,34.0,30.18,West,270,4.9,6.3,56,0.00,,---,0.08,VWS V14.01,2013-01-01 22:07:00,
2013-01-01 16:12:00,49.2,33.7,30.18,WNW,292,8.7,8.7,55,0.00,,---,0.08,VWS V14.01,2013-01-01 22:12:00,
2013-01-01 16:17:00,48.6,33.2,30.18,WNW,292,4.9,6.5,55,0.00,,---,0.08,VWS V14.01,2013-01-01 22:17:00,
2013-01-01 16:22:00,48.6,33.7,30.21,NNW,338,5.4,7.2,56,0.00,,---,0.08,VWS V14.01,2013-01-01 22:22:00,
2013-01-01 16:27:00,48.6,33.7,30.21,NW,315,5.6,5.6,56,0.00,,---,0.08,VWS V14.01,2013-01-01 22:27:00,
2013-01-01 16:32:00,48.5,33.5,30.21,NW,315,2.7,5.4,56,0.00,,---,0.08,VWS V14.01,2013-01-01 22:32:00,
2013-01-01 16:37:00,48.1,33.2,30.21,North,0,3.1,3.1,56,0.00,,---,0.08,VWS V14.01,2013-01-01 22:37:00,
2013-01-01 16:42:00,47.9,33.4,30.21,West,270,6.3,6.3,57,0.00,,---,0.08,VWS V14.01,2013-01-01 22:42:00,
2013-01-01 16:47:00,47.6,33.1,30.21,NW,315,5.6,6.5,57,0.00,,---,0.08,VWS V14.01,2013-01-01 22:47:00,
2013-01-01 16:52:00,47.6,33.5,30.21,WNW,292,4.0,4.0,58,0.00,,---,0.08,VWS V14.01,2013-01-01 22:52:00,
2013-01-01 16:57:00,48.1,34.0,30.21,WNW,292,5.4,5.4,58,0.00,,---,0.08,VWS V14.01,2013-01-01 22:57:00,
2013-01-01 17:02:00,48.5,34.4,30.21,WNW,292,1.6,2.7,58,0.00,,---,0.08,VWS V14.01,2013-01-01 23:02:00,
2013-01-01 17:07:00,47.9,33.9,30.18,NW,315,3.1,3.1,58,0.00,,---,0.08,VWS V14.01,2013-01-01 23:07:00,
2013-01-01 17:12:00,47.6,34.0,30.18,NNW,338,2.0,2.0,59,0.00,,---,0.08,VWS V14.01,2013-01-01 23:12:00,
2013-01-01 17:17:00,47.2,33.6,30.18,West,270,1.6,2.9,59,0.00,,---,0.08,VWS V14.01,2013-01-01 23:17:00,
2013-01-01 17:22:00,46.7,33.1,30.21,NNW,338,0.0,0.0,59,0.00,,---,0.08,VWS V14.01,2013-01-01 23:22:00,
2013-01-01 17:27:00,46.3,33.2,30.21,NNW,338,0.0,0.0,60,0.00,,---,0.08,VWS V14.01,2013-01-01 23:27:00,
2013-01-01 17:32:00,45.8,33.1,30.21,North,0,0.0,0.0,61,0.00,,---,0.08,VWS V14.01,2013-01-01 23:32:00,
2013-01-01 17:37:00,45.1,32.9,30.21,NE,45,0.0,0.0,62,0.00,,---,0.08,VWS V14.01,2013-01-01 23:37:00,
2013-01-01 17:42:00,44.6,32.8,30.21,NNE,22,0.0,0.0,63,0.00,,---,0.08,VWS V14.01,2013-01-01 23:42:00,
2013-01-01 17:47:00,44.0,33.0,30.21,North,0,2.0,2.0,65,0.00,,---,0.08,VWS V14.01,2013-01-01 23:47:00,
2013-01-01 17:52:00,43.7,33.5,30.21,NE,45,0.0,0.0,67,0.00,,---,0.08,VWS V14.01,2013-01-01 23:52:00,
2013-01-01 17:57:00,43.3,33.5,30.21,ENE,68,1.3,1.3,68,0.00,,---,0.08,VWS V14.01,2013-01-01 23:57:00,
2013-01-01 18:02:00,43.7,34.5,30.21,NNE,22,2.9,3.1,70,0.00,,---,0.08,VWS V14.01,2013-01-02 00:02:00,
2013-01-01 18:07:00,44.0,35.2,30.21,North,0,5.6,5.6,71,0.00,,---,0.08,VWS V14.01,2013-01-02 00:07:00,
2013-01-01 18:12:00,44.0,34.9,30.21,North,0,4.0,4.0,70,0.00,,---,0.08,VWS V14.01,2013-01-02 00:12:00,
2013-01-01 18:17:00,43.7,34.5,30.21,North,0,2.7,2.9,70,0.00,,---,0.08,VWS V14.01,2013-01-02 00:17:00,
2013-01-01 18:22:00,43.5,34.0,30.21,NNW,338,3.8,6.0,69,0.00,,---,0.08,VWS V14.01,2013-01-02 00:22:00,
2013-01-01 18:27:00,43.5,33.7,30.21,North,0,8.1,8.1,68,0.00,,---,0.08,VWS V14.01,2013-01-02 00:27:00,
2013-01-01 18:32:00,43.5,32.9,30.21,NW,315,3.6,3.8,66,0.00,,---,0.08,VWS V14.01,2013-01-02 00:32:00,
2013-01-01 18:37:00,43.3,32.4,30.24,North,0,4.9,4.9,65,0.00,,---,0.08,VWS V14.01,2013-01-02 00:37:00,
2013-01-01 18:42:00,43.1,32.6,30.24,NNW,338,4.0,4.0,66,0.00,,---,0.08,VWS V14.01,2013-01-02 00:42:00,
2013-01-01 18:47:00,43.0,32.4,30.24,NNW,338,4.0,4.0,66,0.00,,---,0.08,VWS V14.01,2013-01-02 00:47:00,
2013-01-01 18:52:00,42.8,32.2,30.24,NNW,338,4.0,4.0,66,0.00,,---,0.08,VWS V14.01,2013-01-02 00:52:00,
2013-01-01 18:58:00,42.8,32.2,30.24,NNW,338,4.0,4.0,66,0.00,,---,0.08,VWS V14.01,2013-01-02 00:58:00,
2013-01-01 19:03:00,43.0,31.6,30.24,NNW,338,4.0,4.0,64,0.00,,---,0.08,VWS V14.01,2013-01-02 01:03:00,
2013-01-01 19:08:00,43.0,31.2,30.24,NNW,338,4.0,4.0,63,0.00,,---,0.08,VWS V14.01,2013-01-02 01:08:00,
2013-01-01 19:13:00,42.8,31.1,30.24,NNW,338,4.0,4.0,63,0.00,,---,0.08,VWS V14.01,2013-01-02 01:13:00,
2013-01-01 19:18:00,42.6,30.5,30.24,NNW,338,4.0,4.0,62,0.00,,---,0.08,VWS V14.01,2013-01-02 01:18:00,
2013-01-01 19:23:00,42.4,30.7,30.24,NNW,338,4.0,4.0,63,0.00,,---,0.08,VWS V14.01,2013-01-02 01:23:00,
2013-01-01 19:28:00,42.1,30.4,30.24,NNW,338,4.0,4.0,63,0.00,,---,0.08,VWS V14.01,2013-01-02 01:28:00,
2013-01-01 19:33:00,41.9,30.2,30.24,NNW,338,4.0,4.0,63,0.00,,---,0.08,VWS V14.01,2013-01-02 01:33:00,
2013-01-01 19:38:00,41.9,30.2,30.24,NNW,338,3.1,6.0,63,0.00,,---,0.08,VWS V14.01,2013-01-02 01:38:00,
2013-01-01 19:43:00,41.7,30.1,30.24,NNE,22,6.0,7.2,63,0.00,,---,0.08,VWS V14.01,2013-01-02 01:43:00,
2013-01-01 19:48:00,41.4,30.1,30.24,NNW,338,3.4,4.0,64,0.00,,---,0.08,VWS V14.01,2013-01-02 01:48:00,
2013-01-01 19:53:00,41.2,30.0,30.24,NW,315,6.0,6.0,64,0.00,,---,0.08,VWS V14.01,2013-01-02 01:53:00,
2013-01-01 19:58:00,41.2,30.0,30.24,NNW,338,6.0,6.5,64,0.00,,---,0.08,VWS V14.01,2013-01-02 01:58:00,
2013-01-01 20:03:00,41.2,30.0,30.24,North,0,3.6,6.5,64,0.00,,---,0.08,VWS V14.01,2013-01-02 02:03:00,
2013-01-01 20:08:00,41.0,30.2,30.21,NNW,338,4.0,4.3,65,0.00,,---,0.08,VWS V14.01,2013-01-02 02:08:00,
2013-01-01 20:13:00,40.8,30.0,30.21,North,0,2.5,4.5,65,0.00,,---,0.08,VWS V14.01,2013-01-02 02:13:00,
2013-01-01 20:18:00,40.7,30.2,30.21,North,0,3.6,3.6,66,0.00,,---,0.08,VWS V14.01,2013-01-02 02:18:00,
2013-01-01 20:23:00,40.5,30.4,30.21,NNW,338,3.6,5.4,67,0.00,,---,0.08,VWS V14.01,2013-01-02 02:23:00,
2013-01-01 20:28:00,40.1,30.1,30.21,NNW,338,2.5,2.5,67,0.00,,---,0.08,VWS V14.01,2013-01-02 02:28:00,
2013-01-01 20:33:00,40.0,30.3,30.21,North,0,2.7,2.7,68,0.00,,---,0.08,VWS V14.01,2013-01-02 02:33:00,
2013-01-01 20:38:00,40.0,30.3,30.24,NNE,22,2.9,3.1,68,0.00,,---,0.08,VWS V14.01,2013-01-02 02:38:00,
2013-01-01 20:43:00,40.0,30.6,30.24,North,0,2.0,2.7,69,0.00,,---,0.08,VWS V14.01,2013-01-02 02:43:00,
2013-01-01 20:48:00,39.6,30.3,30.24,NW,315,2.7,2.7,69,0.00,,---,0.08,VWS V14.01,2013-01-02 02:48:00,
2013-01-01 20:53:00,39.2,29.9,30.27,East,90,0.9,1.3,69,0.00,,---,0.08,VWS V14.01,2013-01-02 02:53:00,
2013-01-01 20:59:00,38.9,29.6,30.27,ENE,68,0.0,0.0,69,0.00,,---,0.08,VWS V14.01,2013-01-02 02:59:00,
2013-01-01 21:04:00,38.7,29.8,30.27,South,180,0.0,0.0,70,0.00,,---,0.08,VWS V14.01,2013-01-02 03:04:00,
2013-01-01 21:09:00,38.3,29.8,30.27,SE,135,0.0,0.0,71,0.00,,---,0.08,VWS V14.01,2013-01-02 03:09:00,
2013-01-01 21:14:00,38.2,29.6,30.27,SE,135,0.0,0.0,71,0.00,,---,0.08,VWS V14.01,2013-01-02 03:14:00,
2013-01-01 21:19:00,38.0,29.5,30.27,WNW,292,0.0,0.0,71,0.00,,---,0.08,VWS V14.01,2013-01-02 03:19:00,
2013-01-01 21:24:00,37.6,29.5,30.27,West,270,0.0,0.0,72,0.00,,---,0.08,VWS V14.01,2013-01-02 03:24:00,
2013-01-01 21:29:00,37.3,29.1,30.27,West,270,0.0,0.0,72,0.00,,---,0.08,VWS V14.01,2013-01-02 03:29:00,
2013-01-01 21:34:00,36.6,29.1,30.27,West,270,0.0,0.0,74,0.00,,---,0.08,VWS V14.01,2013-01-02 03:34:00,
2013-01-01 21:39:00,36.4,28.9,30.30,West,270,0.0,0.0,74,0.00,,---,0.08,VWS V14.01,2013-01-02 03:39:00,
2013-01-01 21:44:00,36.2,28.8,30.30,WSW,248,2.2,3.1,74,0.00,,---,0.08,VWS V14.01,2013-01-02 03:44:00,
2013-01-01 21:49:00,36.8,30.9,30.30,NW,315,3.1,4.3,79,0.00,,---,0.08,VWS V14.01,2013-01-02 03:49:00,
2013-01-01 21:54:00,37.3,31.1,30.27,NW,315,2.5,5.6,78,0.00,,---,0.08,VWS V14.01,2013-01-02 03:54:00,
2013-01-01 21:59:00,37.6,31.1,30.27,WNW,292,2.0,2.9,77,0.00,,---,0.08,VWS V14.01,2013-01-02 03:59:00,
2013-01-01 22:04:00,37.3,30.4,30.27,West,270,0.0,0.9,76,0.00,,---,0.08,VWS V14.01,2013-01-02 04:04:00,
2013-01-01 22:09:00,37.3,30.1,30.30,South,180,0.0,0.0,75,0.00,,---,0.08,VWS V14.01,2013-01-02 04:09:00,
2013-01-01 22:14:00,37.3,30.4,30.30,North,0,2.5,2.5,76,0.00,,---,0.08,VWS V14.01,2013-01-02 04:14:00,
2013-01-01 22:19:00,37.5,30.3,30.30,North,0,2.5,2.5,75,0.00,,---,0.08,VWS V14.01,2013-01-02 04:19:00,
2013-01-01 22:24:00,37.5,30.3,30.30,North,0,2.5,2.5,75,0.00,,---,0.08,VWS V14.01,2013-01-02 04:24:00,
2013-01-01 22:29:00,37.5,30.0,30.30,North,0,2.5,2.5,74,0.00,,---,0.08,VWS V14.01,2013-01-02 04:29:00,
2013-01-01 22:34:00,37.5,29.3,30.30,North,0,2.5,2.5,72,0.00,,---,0.08,VWS V14.01,2013-01-02 04:34:00,
2013-01-01 22:39:00,37.3,29.1,30.30,North,0,2.5,2.5,72,0.00,,---,0.08,VWS V14.01,2013-01-02 04:39:00,
2013-01-01 22:44:00,37.3,28.8,30.30,North,0,2.5,2.5,71,0.00,,---,0.08,VWS V14.01,2013-01-02 04:44:00,
2013-01-01 22:49:00,37.5,28.6,30.30,North,0,2.5,2.5,70,0.00,,---,0.08,VWS V14.01,2013-01-02 04:49:00,
2013-01-01 22:54:00,37.5,28.2,30.30,North,0,2.5,2.5,69,0.00,,---,0.08,VWS V14.01,2013-01-02 04:54:00,
2013-01-01 22:59:00,37.6,28.0,30.30,NNW,338,7.6,7.6,68,0.00,,---,0.08,VWS V14.01,2013-01-02 04:59:00,
2013-01-01 23:00:00,37.6,27.7,30.30,NNW,338,6.5,8.1,67,0.00,,---,0.08,VWS V14.01,2013-01-02 05:00:00,
2013-01-01 23:01:00,37.5,27.9,30.30,NNW,338,4.3,4.7,68,0.00,,---,0.08,VWS V14.01,2013-01-02 05:01:00,
2013-01-01 23:03:00,37.5,27.9,30.30,NNW,338,4.3,5.8,68,0.00,,---,0.08,VWS V14.01,2013-01-02 05:03:00,
2013-01-01 23:08:00,37.3,27.7,30.27,NNW,338,8.7,8.7,68,0.00,,---,0.08,VWS V14.01,2013-01-02 05:08:00,
2013-01-01 23:13:00,37.1,27.5,30.27,NW,315,3.8,7.2,68,0.00,,---,0.08,VWS V14.01,2013-01-02 05:13:00,
2013-01-01 23:18:00,37.1,27.5,30.27,NNW,338,3.6,5.4,68,0.00,,---,0.08,VWS V14.01,2013-01-02 05:18:00,
2013-01-01 23:23:00,36.9,27.4,30.30,NNW,338,2.9,2.9,68,0.00,,---,0.08,VWS V14.01,2013-01-02 05:23:00,
2013-01-01 23:28:00,36.8,26.9,30.30,North,0,4.3,6.0,67,0.00,,---,0.08,VWS V14.01,2013-01-02 05:28:00,
2013-01-01 23:33:00,36.8,26.9,30.30,NNW,338,8.5,8.7,67,0.00,,---,0.08,VWS V14.01,2013-01-02 05:33:00,
2013-01-01 23:38:00,36.6,26.7,30.30,NNE,22,5.6,5.6,67,0.00,,---,0.08,VWS V14.01,2013-01-02 05:38:00,
2013-01-01 23:43:00,36.6,26.3,30.30,North,0,5.6,10.3,66,0.00,,---,0.08,VWS V14.01,2013-01-02 05:43:00,
2013-01-01 23:48:00,36.4,26.1,30.30,NNW,338,4.9,4.9,66,0.00,,---,0.08,VWS V14.01,2013-01-02 05:48:00,
2013-01-01 23:53:00,36.2,26.0,30.30,North,0,4.9,5.8,66,0.00,,---,0.00,VWS V14.01,2013-01-02 05:53:00,
2013-01-01 23:58:00,36.0,26.2,30.30,North,0,1.1,2.5,67,0.00,,---,0.00,VWS V14.01,2013-01-02 05:58:00,